Hattiesburg, MS

4:40 AM CST on November 25, 2017 (GMT -0600)
Chain Municipal

Weather History for KHBG - September, 2012

Change the Weather History Date:

Sunday, September 16, 2012

  Actual Average Record
Temperature  
Mean Temperature 79 °F 77 °F  
Max Temperature 89 °F 88 °F 98 °F (1972)
Min Temperature 69 °F 66 °F 49 °F (1961)
Degree Days  
Heating Degree Days 0 0  
Month to date heating degree days 0 0  
Since 1 July heating degree days 0 0  
Cooling Degree Days 14 12  
Month to date cooling degree days 237 220  
Year to date cooling degree days 2481 2091  
Growing Degree Days 30 (Base 50)    
Moisture  
Dew Point 71 °F    
Average Humidity 75    
Maximum Humidity 94    
Minimum Humidity 55    
Precipitation  
Precipitation 0.04 in 0.15 in 3.87 in (2014)
Month to date precipitation 1.16 2.34  
Year to date precipitation 54.52 44.50  
Sea Level Pressure  
Sea Level Pressure 30.01 in    
Wind  
Wind Speed 3 mph (ESE)    
Max Wind Speed 14 mph    
Max Gust Speed -    
Visibility 10 miles    
Events Rain    
T = Trace of Precipitation, MM = Missing Value Source: NWS Daily Summary

Daily Weather History Graph

Daily Weather History Graph

Search for Another Location

Airport or City:

Trip Planner

Search our weather history database for the weather conditions in past years. The results will help you decide how hot, cold, wet, or windy it might be!

Date:

Astronomy

Sep. 16, 2012 Rise Set
Actual Time 6:42 AM CDT 7:00 PM CDT
Civil Twilight 6:17 AM CDT 7:24 PM CDT
Nautical Twilight 5:49 AM CDT 7:53 PM CDT
Astronomical Twilight 5:20 AM CDT 8:22 PM CDT
Moon 7:14 AM CDT (9/16) 7:14 PM CDT (9/16)
Length of Visible Light 13h 07m
Length of Day
12h 18m
New Moon, 0% of the Moon is Illuminated
Sep 16
New Moon
Sep 22
First Quarter
Sep 29
Full
Oct 8
Last Quarter
Oct 15
New

Hourly Weather History & Observations

Time (CDT) Temp. Heat Index Dew Point Humidity Pressure Visibility Wind Dir Wind Speed Gust Speed Precip Events Conditions
12:53 AM 73.0 °F - 70.0 °F 90% 30.07 in 10.0 mi ESE 4.6 mph - N/A   Overcast
1:53 AM 73.0 °F - 69.1 °F 87% 30.05 in 10.0 mi Calm Calm - N/A   Overcast
2:53 AM 73.9 °F - 69.1 °F 85% 30.04 in 10.0 mi Calm Calm - N/A   Overcast
3:53 AM 73.0 °F - 69.1 °F 87% 30.03 in 10.0 mi Calm Calm - N/A   Overcast
4:53 AM 71.1 °F - 69.1 °F 93% 30.03 in 10.0 mi Calm Calm - N/A   Clear
5:53 AM 71.1 °F - 69.1 °F 93% 30.05 in 10.0 mi Calm Calm - N/A   Clear
7:53 AM 73.9 °F - 70.0 °F 87% 30.05 in 10.0 mi North 3.5 mph - N/A   Clear
8:53 AM 77.0 °F - 69.1 °F 76% 30.06 in 10.0 mi East 3.5 mph - N/A   Clear
9:53 AM 79.0 °F - 69.1 °F 72% 30.06 in 10.0 mi SE 4.6 mph - N/A   Clear
10:53 AM 82.0 °F 86.3 °F 71.1 °F 69% 30.05 in 10.0 mi ESE 4.6 mph - N/A   Clear
11:53 AM 84.0 °F 87.8 °F 69.1 °F 61% 30.04 in 10.0 mi Variable 3.5 mph - N/A   Partly Cloudy
12:53 PM 84.9 °F 89.4 °F 70.0 °F 61% 30.02 in 10.0 mi East 5.8 mph - N/A   Scattered Clouds
1:53 PM 88.0 °F 92.1 °F 69.1 °F 53% 30.00 in 10.0 mi Calm Calm - N/A   Partly Cloudy
2:53 PM 88.0 °F 92.9 °F 70.0 °F 55% 29.97 in 10.0 mi East 5.8 mph - N/A   Partly Cloudy
3:53 PM 88.0 °F 92.9 °F 70.0 °F 55% 29.95 in 10.0 mi NNE 4.6 mph - N/A   Partly Cloudy
4:18 PM 78.8 °F - 71.6 °F 78% 29.97 in 9.0 mi ESE 13.8 mph - 0.00 in Rain Light Rain
4:53 PM 77.0 °F - 73.0 °F 88% 29.96 in 10.0 mi SE 10.4 mph - 0.03 in   Mostly Cloudy
5:53 PM 75.9 °F - 72.0 °F 87% 29.97 in 10.0 mi SW 4.6 mph - 0.00 in Rain Light Rain
6:53 PM 75.0 °F - 72.0 °F 90% 29.95 in 10.0 mi SSE 3.5 mph - 0.01 in   Mostly Cloudy
7:53 PM 75.0 °F - 72.0 °F 90% 29.96 in 10.0 mi Calm Calm - N/A   Mostly Cloudy
8:53 PM 75.0 °F - 73.0 °F 94% 29.98 in 10.0 mi East 3.5 mph - N/A   Overcast
9:37 PM 75.2 °F - 73.4 °F 94% 30.00 in 10.0 mi Calm Calm - N/A   Overcast
9:53 PM 75.0 °F - 73.0 °F 94% 29.99 in 10.0 mi SE 3.5 mph - N/A   Overcast
10:00 PM 75.2 °F - 73.4 °F 94% 29.99 in 10.0 mi ESE 3.5 mph - N/A   Overcast
10:14 PM 75.2 °F - 73.4 °F 94% 30.00 in 7.0 mi ESE 4.6 mph - N/A   Overcast
10:53 PM 75.0 °F - 73.0 °F 94% 29.99 in 10.0 mi Calm Calm - N/A   Overcast
11:18 PM 73.4 °F - 73.4 °F 100% 29.99 in 10.0 mi Calm Calm - N/A   Scattered Clouds
11:53 PM 73.9 °F - 72.0 °F 93% 29.97 in 9.0 mi Calm Calm - N/A   Clear